User: anonymous   Login
Location: Unspecified
(48.1170°N, 0.0000°E)
Time: 23:59:04
(UTC+00:00)
Language:

Oscar 19 - Orbit

View from above orbital plane
View from above orbital plane
View from above satellite
View from above satellite

Ground track
Ground track

The orbit data is extracted from the following two-line orbital elements,

1 20442U 90005G   19230.83759019 -.00000007 +00000-0 +13880-4 0  9995
2 20442 098.6511 172.7446 0011294 334.8319 025.2313 14.32930802545139
Epoch (UTC): 18 August 2019 20:06:07
Eccentricity: 0.0011294
inclination: 98.6511°
perigee height: 774 km
apogee height: 790 km
right ascension of ascending node: 172.7446°
argument of perigee: 334.8319°
revolutions per day: 14.32930802
mean anomaly at epoch: 25.2313°
orbit number at epoch: 54513

The dashed part of the orbit path shows where the satellite is in the earth's shadow,  

DLR